Погода в Дарваге

Россия / Республика Дагестан     42°01′18″N   48°03′55″E
темп.,
°C
ветер,
м/с
пор.,
м/с
влажн.,
%
обл.,
%
осадки,
мм/ч
давл.,
гПа
погр.,
м
29 ноября, пн
пн2900:00+7зсз016899 0.0 101510
03:00+7зсз1167100 0.0 101510
06:00+6сз2273100 0.0 101611
09:00+8ссз22731 0.0 1018105
12:00+10всв21730 0.0 1017316
15:00+10всв117654 0.0 1016238
18:00+8ююв11864 0.0 101610
21:00+9ю11715 0.0 101510
30 ноября, вт
вт3000:00+10ююз2246100 0.0 101310
03:00+12ююз32335 0.0 101011
06:00+14ююз332756 0.0 100614
09:00+18ююз4329100 0.0 100523
12:00+23ююз3325100 0.0 100124
15:00+14ссз1253100 0.0 100457
18:00+11ююв225923 0.0 100617
21:00+10юз1164100 0.0 100410
1 декабря, ср
ср100:00+12ю434690 0.0 99828
03:00+17ююз542763 0.0 99536
06:00+17юз4428100 0.0 99429
09:00+13ссв335294 0.0 998109
12:00+11ссв44715 0.0 1002435
15:00+10св337290 0.0 1006615
18:00+5ссв4796100 6.1 1011656
21:00+3с3697100 9.2 1013445
2 декабря, чт
чт200:00+2с2497100 2.8 1016278
03:00+1ссз359287 3.6 1017324
06:00+2з338296 0.1 101874
09:00+4юз236359 0.1 1020272
12:00+7ююв33505 0.0 1020797
15:00+7ююв34551 0.0 1020429
18:00+3юз11711 0.0 102418
21:00+2ююз22650 0.0 102515
3 декабря, пт
пт300:00+2ююз22600 0.0 102414
03:00+2ююз22490 0.0 102414
06:00+2ююз22470 0.0 102313
09:00+7ююз11390 0.0 102261
12:00+10всв21365 0.0 1019219
15:00+9в114965 0.0 101866
18:00+7ююз2248100 0.0 101711
21:00+7юз2240100 0.0 101610